[[{"header":{"parameterUnit":"m.s-1","parameterCategory":1,"la1":30.2991,"la2":30.254,"lo1":-89.0895,"lo2":-89.0444,"dy":0.0017,"dx":0.0017,"nx":28,"ny":28,"refTime":"2025-11-16T09:00:00:Z","depth":0,"parameterNumber":2,"parameterNumberName":"U-component_of_WINDS"},"data":[0,0,0,0,0,0,0,0,0,0,0,0,0,0,0,0,0,0,0,0,0,0,0,0,0,0,0,0,0,0,0,0,0,0,0,0,0,0,0,0,0,0,0,0,0,0,0,0,0,0,0,0,0,0,0,0,0,0,2.2728,2.2729,0,2.2805,2.2805,2.2806,2.2772,2.277,2.2768,2.2766,2.2847,2.2851,2.2855,0,0,0,0,0,0,0,0,0,0,0,0,0,2.2554,2.2558,2.2728,2.2729,2.273,2.2804,2.2806,2.2807,2.2772,2.277,2.2767,2.2765,2.2846,2.2851,2.2856,0,0,0,0,0,0,0,0,0,0,0,0,0,2.263,2.2559,2.2728,2.2721,2.2721,2.2804,2.2806,2.2807,2.2772,2.2769,2.2767,2.2764,2.2845,2.285,2.2856,2.295,0,0,2.2874,2.2877,0,0,0,0,0,0,0,0,2.2626,2.2637,2.2721,2.2722,2.2722,2.2775,2.2774,2.2855,2.2773,2.2753,2.2766,2.2763,2.2826,2.2833,2.2854,2.2954,2.2958,2.2875,2.2878,2.2881,2.2883,0,0,0,0,0,0,0,2.2621,2.2633,2.2758,2.2723,2.2723,2.2716,2.2723,2.2789,2.2805,2.2755,2.2752,2.2762,2.2826,2.2848,2.2856,2.2959,2.2875,2.288,2.2884,2.2886,2.3142,2.3145,0,0,0,0,0,0,2.2615,2.2629,2.2756,2.276,2.2666,2.2721,2.273,2.2761,2.2804,2.2808,2.2764,2.276,2.284,2.2849,2.2859,2.2972,2.2881,2.2887,2.289,2.3139,2.3143,2.3146,0,0,0,0,0,0,2.2612,2.2627,2.2753,2.2694,2.271,2.2727,2.2763,2.2764,2.2787,2.2811,2.2814,2.2784,2.2838,2.285,2.2928,2.2975,2.2889,2.2895,2.3135,2.314,2.3145,2.32,0,0,0,0,0,0,2.2607,2.2626,2.2661,2.2695,2.2713,2.282,2.2766,2.2768,2.2797,2.2792,2.2831,2.2834,2.2837,2.2919,2.2934,2.2981,2.2899,2.3131,2.3137,2.3143,2.3194,2.3206,2.3217,0,0,0,0,0,2.2601,2.2674,2.2663,2.2678,2.2757,2.2822,2.2833,2.2833,2.2801,2.2837,2.2853,2.2833,2.2967,2.2928,2.2944,2.2994,2.3128,2.3135,2.3143,2.3189,2.3204,2.3216,0,0,0,0,0,0,2.2645,2.2678,2.2666,2.2752,2.2785,2.2816,2.2862,2.2848,2.2891,2.2885,2.2884,2.2893,2.2974,2.2992,2.2947,2.3088,2.3043,2.3054,2.3073,2.3087,2.3098,2.3092,2.2904,0,0,0,0,0,2.2664,2.2714,2.2741,2.2814,2.2831,2.2844,2.2872,2.287,2.2904,2.2917,2.2939,2.2974,2.3024,2.3056,2.3104,2.3197,2.3206,2.324,2.3251,2.326,2.3269,2.3321,2.3337,2.317,2.317,2.317,0,0,2.2706,2.273,2.2761,2.2824,2.2848,2.2901,2.2856,2.2913,2.2952,2.2926,2.3001,2.3018,2.3057,2.3143,2.3182,2.3161,2.3317,2.3269,2.3276,2.3281,2.333,2.3346,2.336,2.3175,2.3174,2.3173,0,0,2.2807,2.283,2.2894,2.292,2.2959,2.2967,2.2982,2.3017,2.3027,2.3102,2.3084,2.3132,2.3217,2.3246,2.3272,2.3387,2.3371,2.3402,2.3461,2.3511,2.3524,2.3536,2.3577,2.3592,2.3412,2.3412,2.3412,0,2.2853,2.2931,2.2929,2.2988,2.3017,2.2996,2.3061,2.3087,2.3139,2.316,2.3135,2.3243,2.3268,2.3361,2.3389,2.341,2.3429,2.3397,2.3522,2.3534,2.3545,2.3584,2.36,2.3415,2.3415,2.3414,2.3414,0,2.2986,2.304,2.3088,2.3138,2.3172,2.3234,2.3243,2.3278,2.3273,2.3285,2.3362,2.3391,2.3445,2.3467,2.3462,2.356,2.3545,2.3522,2.3476,2.3564,2.3601,2.3617,2.342,2.3419,2.3418,2.3417,0,0,2.3116,2.3166,2.3183,2.3206,2.3248,2.329,2.3352,2.3404,2.3434,2.3472,2.3524,2.3598,2.3577,2.3606,2.3605,2.365,2.374,2.3621,2.3622,2.3642,2.385,2.3868,2.3885,2.373,2.3733,2.3735,2.3847,0,2.3221,2.3328,2.3329,2.3428,2.3479,2.3461,2.3515,2.3547,2.356,2.3606,2.3621,2.3674,2.3641,2.3659,2.3702,2.372,2.3782,2.3712,2.378,2.3782,2.377,2.3904,2.3923,2.4027,2.3861,2.3864,2.3866,0,2.3356,2.3397,2.3502,2.3537,2.3558,2.3607,2.3655,2.3699,2.3736,2.3742,2.3776,2.3769,2.3834,2.3788,2.3878,2.383,2.3858,2.3872,2.3876,2.3882,2.3829,2.3914,2.406,2.4075,2.3888,2.3887,2.3885,0,2.344,2.3522,2.3595,2.3616,2.3659,2.3694,2.3714,2.3748,2.3779,2.3822,2.3843,2.3893,2.392,2.396,2.3967,2.3933,2.4058,2.4012,2.4066,2.4066,2.4093,2.4091,2.4245,2.4112,2.4111,2.4111,2.4111,0,2.3557,2.3621,2.3634,2.3679,2.3751,2.3753,2.3825,2.3842,2.3873,2.3922,2.3911,2.3957,2.3964,2.4013,2.402,2.4094,2.4107,2.4115,2.4115,2.4115,2.4114,2.4133,2.4126,2.4115,2.4114,2.4113,2.4113,0,2.3662,2.3673,2.3752,2.3787,2.3797,2.3849,2.388,2.3923,2.3936,2.3998,2.4013,2.4033,2.409,2.4101,2.4169,2.4174,2.4262,2.4256,2.4249,2.4248,2.4302,2.4297,2.4473,2.4497,2.4349,2.435,2.4351,0,2.3735,2.3784,2.3825,2.3856,2.3878,2.3929,2.3961,2.3966,2.4,2.4047,2.4086,2.4142,2.4186,2.4279,2.43,2.4352,2.4347,2.4406,2.4355,2.4354,2.4348,2.4345,2.435,2.4415,2.4417,2.4418,2.4419,0,2.3864,2.3867,2.3913,2.3962,2.4001,2.404,2.4077,2.4104,2.4114,2.4154,2.4211,2.4246,2.4316,2.4372,2.4424,2.4446,2.4435,2.4435,2.445,2.445,2.4444,2.4449,2.4275,2.4431,2.4429,2.4429,2.4428,2.4427,2.3955,2.3998,2.4034,2.4086,2.4115,2.415,2.4193,2.4211,2.4259,2.4316,2.4316,2.438,2.4418,2.4487,2.4513,2.4564,2.4545,2.4567,2.4573,2.4578,2.4583,2.4437,2.4573,2.4573,2.4573,2.4572,2.4572,0,2.4083,2.4105,2.4153,2.4206,2.4248,2.4233,2.4274,2.431,2.4366,2.4402,2.4447,2.4514,2.4569,2.4595,2.465,2.4686,2.4682,2.47,2.4697,2.4702,2.4596,2.4578,2.4702,2.4702,2.4702,2.4702,2.4702,2.4702,2.4154,2.4227,2.4235,2.4323,2.4345,2.4406,2.4431,2.4464,2.4493,2.4569,2.4614,2.4631,2.4663,2.4721,2.4771,2.4777,2.4798,2.4818,2.4823,2.4723,2.471,2.4697,2.4679,2.4823,2.4823,2.4924,2.4925,2.4926]},{"header":{"parameterUnit":"m.s-1","parameterCategory":1,"la1":30.2991,"la2":30.254,"lo1":-89.0895,"lo2":-89.0444,"dy":0.0017,"dx":0.0017,"nx":28,"ny":28,"refTime":"2025-11-16T09:00:00:Z","depth":0,"parameterNumber":3,"parameterNumberName":"V-component_of_WINDS"},"data":[0,0,0,0,0,0,0,0,0,0,0,0,0,0,0,0,0,0,0,0,0,0,0,0,0,0,0,0,0,0,0,0,0,0,0,0,0,0,0,0,0,0,0,0,0,0,0,0,0,0,0,0,0,0,0,0,0,0,2.5062,2.5062,0,2.5142,2.5143,2.5144,2.5118,2.5116,2.5114,2.5113,2.5198,2.5202,2.5206,0,0,0,0,0,0,0,0,0,0,0,0,0,2.4889,2.4892,2.5062,2.5063,2.5064,2.5142,2.5143,2.5144,2.5118,2.5116,2.5114,2.5112,2.5197,2.5202,2.5206,0,0,0,0,0,0,0,0,0,0,0,0,0,2.4966,2.4893,2.5061,2.506,2.5061,2.5141,2.5143,2.5144,2.5118,2.5116,2.5113,2.5111,2.5195,2.5201,2.5207,2.5295,0,0,2.5225,2.5227,0,0,0,0,0,0,0,0,2.4962,2.4973,2.5059,2.506,2.5061,2.5117,2.5113,2.5195,2.5119,2.5097,2.5113,2.511,2.5174,2.5181,2.5202,2.5299,2.5303,2.5225,2.5229,2.5231,2.5233,0,0,0,0,0,0,0,2.4957,2.4969,2.5093,2.506,2.5062,2.5056,2.5064,2.5129,2.5149,2.5098,2.5097,2.5106,2.5174,2.5196,2.5204,2.5304,2.5225,2.523,2.5234,2.5236,2.5478,2.5481,0,0,0,0,0,0,2.495,2.4965,2.5091,2.5096,2.5004,2.5062,2.5071,2.5102,2.5148,2.5152,2.5108,2.5105,2.5188,2.5197,2.5207,2.5313,2.5231,2.5237,2.524,2.5475,2.5479,2.5482,0,0,0,0,0,0,2.4947,2.4962,2.5088,2.503,2.5045,2.5067,2.5103,2.5105,2.5127,2.5156,2.5159,2.5128,2.5186,2.5198,2.5273,2.5316,2.5239,2.5245,2.5472,2.5476,2.548,2.5528,0,0,0,0,0,0,2.4942,2.496,2.4993,2.5031,2.5049,2.5152,2.5105,2.5108,2.5137,2.5133,2.5175,2.5179,2.5185,2.5265,2.5279,2.5323,2.5249,2.5468,2.5474,2.5479,2.5522,2.5533,2.5542,0,0,0,0,0,2.4936,2.5004,2.4995,2.5011,2.509,2.5154,2.5165,2.5169,2.5141,2.5175,2.5193,2.5178,2.5309,2.5272,2.5288,2.5335,2.5465,2.5472,2.5479,2.5518,2.5531,2.5542,0,0,0,0,0,0,2.4973,2.5009,2.5,2.5082,2.5115,2.515,2.5193,2.5183,2.5225,2.522,2.5224,2.5234,2.5311,2.533,2.5289,2.5423,2.5383,2.5393,2.5407,2.542,2.543,2.5424,2.5254,0,0,0,0,0,2.499,2.5038,2.5068,2.5138,2.5155,2.5171,2.5199,2.5199,2.5234,2.5249,2.5272,2.5308,2.5357,2.5389,2.5436,2.5525,2.5534,2.5564,2.5574,2.5582,2.5591,2.564,2.5654,2.5504,2.5504,2.5503,0,0,2.5027,2.5053,2.5083,2.5146,2.5171,2.5222,2.5183,2.5238,2.5277,2.5257,2.5329,2.5348,2.5388,2.547,2.5507,2.5489,2.5635,2.5591,2.5597,2.5602,2.5649,2.5663,2.5676,2.5508,2.5507,2.5507,0,0,2.5121,2.5145,2.5206,2.5232,2.5271,2.5282,2.5296,2.5333,2.5344,2.5416,2.5403,2.5449,2.5533,2.5562,2.5588,2.5693,2.5682,2.5708,2.5761,2.5808,2.582,2.5831,2.5869,2.5883,2.5717,2.5717,2.5717,0,2.5162,2.5237,2.5239,2.5295,2.5324,2.5307,2.537,2.5396,2.5449,2.5469,2.5447,2.5553,2.5579,2.5668,2.5693,2.5714,2.5732,2.5704,2.5818,2.5829,2.5839,2.5876,2.589,2.572,2.572,2.5719,2.5719,0,2.5287,2.5339,2.5384,2.5434,2.5468,2.5527,2.5539,2.5572,2.557,2.5583,2.5657,2.5687,2.574,2.5761,2.5759,2.585,2.5837,2.5817,2.5777,2.5856,2.5891,2.5905,2.5725,2.5723,2.5723,2.5722,0,0,2.5407,2.5457,2.5473,2.5496,2.5538,2.5579,2.5638,2.5689,2.5718,2.5755,2.5806,2.5877,2.5859,2.5888,2.589,2.5931,2.6014,2.5906,2.5907,2.5926,2.6117,2.6133,2.6149,2.6006,2.6008,2.601,2.6114,0,2.5505,2.5607,2.561,2.5704,2.5753,2.5738,2.579,2.5822,2.5836,2.588,2.5896,2.5947,2.5918,2.5936,2.5976,2.5995,2.6052,2.5987,2.6054,2.6056,2.6045,2.6167,2.6184,2.628,2.6127,2.613,2.6131,0,2.5632,2.5672,2.5771,2.5806,2.5827,2.5873,2.592,2.5962,2.5999,2.6006,2.6039,2.6034,2.6096,2.6053,2.6139,2.6095,2.6122,2.6136,2.614,2.6147,2.6099,2.6179,2.6311,2.6326,2.6153,2.6151,2.6149,0,2.5711,2.579,2.5859,2.5879,2.5922,2.5955,2.5974,2.6008,2.6038,2.6079,2.61,2.6148,2.6175,2.6213,2.6222,2.619,2.6308,2.6266,2.6317,2.6317,2.6344,2.6342,2.6483,2.636,2.6359,2.6359,2.6359,0,2.582,2.5882,2.5895,2.5938,2.6006,2.601,2.6078,2.6095,2.6125,2.6172,2.6163,2.6207,2.6216,2.6263,2.627,2.6341,2.6353,2.6361,2.6363,2.6363,2.6362,2.6382,2.6376,2.6363,2.6362,2.6361,2.6361,0,2.592,2.5931,2.6006,2.604,2.605,2.6099,2.6129,2.6171,2.6183,2.6242,2.6257,2.6277,2.6331,2.6344,2.6409,2.6414,2.6498,2.6493,2.6486,2.6486,2.6536,2.6532,2.6696,2.6718,2.6579,2.658,2.6581,0,2.599,2.6036,2.6075,2.6105,2.6126,2.6175,2.6205,2.6211,2.6243,2.6288,2.6325,2.6378,2.6421,2.6509,2.6531,2.6581,2.6577,2.6631,2.6585,2.6583,2.6579,2.6577,2.6582,2.664,2.6642,2.6643,2.6644,0,2.6112,2.6115,2.6159,2.6206,2.6242,2.6279,2.6315,2.634,2.6351,2.6388,2.6443,2.6476,2.6542,2.6596,2.6646,2.6668,2.6659,2.6658,2.6673,2.6674,2.6669,2.6673,2.6511,2.6655,2.6654,2.6653,2.6652,2.6652,2.62,2.6241,2.6274,2.6324,2.6351,2.6384,2.6425,2.6442,2.6488,2.6541,2.6542,2.6602,2.6639,2.6705,2.6729,2.6778,2.6761,2.6782,2.6788,2.6793,2.6798,2.666,2.6787,2.6786,2.6786,2.6786,2.6786,0,2.6322,2.6343,2.6389,2.6438,2.6477,2.6463,2.6502,2.6536,2.6589,2.6623,2.6665,2.6729,2.6781,2.6806,2.6858,2.6892,2.6889,2.6906,2.6904,2.6909,2.6809,2.6792,2.6907,2.6907,2.6907,2.6907,2.6907,2.6907,2.6391,2.646,2.6467,2.655,2.6571,2.6629,2.6652,2.6683,2.671,2.6782,2.6824,2.684,2.6871,2.6925,2.6972,2.6978,2.6999,2.7018,2.7022,2.6928,2.6916,2.6904,2.6888,2.7022,2.7022,2.7118,2.7119,2.7119]}]]